N1EDF Weather Reports


time (UTC)temp
F
wind
direction
speed
knots
gust
knots
rain 1hr
in
rain 24hr
in
rain mn
in
humidity
%
barometer
mb
20260507040552 63 261 0.0 0.0 0.00 0.00 0.00 57 1006.0
20260507040011 63 261 0.0 0.0 0.00 0.00 0.00 57 1006.2
20260507035512 63 261 0.0 0.0 0.00 0.00 0.00 57 1006.4
20260507035024 63 261 0.0 0.0 0.00 0.00 0.00 57 1006.4
20260507034535 63 261 0.0 0.0 0.00 0.00 0.00 57 1006.4
20260507034048 63 261 0.0 0.0 0.00 0.00 0.00 57 1006.3
20260507033558 63 261 0.0 0.0 0.00 0.00 0.00 57 1006.2
20260507033014 63 261 0.0 0.0 0.00 0.00 0.00 57 1006.0
20260507032524 63 261 0.0 0.0 0.00 0.00 0.00 57 1006.0
20260507032041 63 261 0.0 0.0 0.00 0.00 0.00 57 1006.0
20260507031548 63 261 0.0 0.0 0.00 0.00 0.00 57 1006.0
20260507031005 63 261 0.0 0.0 0.00 0.00 0.00 57 1005.8
20260507030519 63 261 0.0 0.0 0.00 0.00 0.00 57 1005.7
20260507030030 63 225 0.0 0.0 0.00 0.00 0.00 57 1005.7
20260507025543 63 225 0.0 0.0 0.00 0.00 0.00 57 1005.7
20260507025053 63 225 0.0 0.0 0.00 0.00 0.00 57 1005.7
20260507024514 63 225 0.0 0.0 0.00 0.00 0.00 57 1005.6
20260507024018 63 227 0.0 0.0 0.00 0.00 0.00 57 1005.6
20260507023532 63 266 0.0 0.0 0.00 0.00 0.00 57 1005.7
20260507023044 63 266 0.0 0.0 0.00 0.00 0.00 57 1005.8
20260507022557 63 266 0.0 0.0 0.00 0.00 0.00 57 1005.9
20260507022009 62 127 0.0 0.0 0.00 0.00 0.00 57 1005.7
20260507021522 62 192 0.0 0.0 0.00 0.00 0.00 57 1005.6
20260507021032 62 192 0.0 0.0 0.00 0.00 0.00 57 1005.7
20260507020546 62 142 0.0 0.0 0.00 0.00 0.00 57 1005.7
20260507020115 62 219 0.0 0.0 0.00 0.00 0.00 57 1005.8
20260507015516 62 219 0.0 0.0 0.00 0.00 0.00 57 1005.8
20260507015025 62 227 0.0 0.0 0.00 0.00 0.00 57 1005.8
20260507014543 62 245 0.0 0.0 0.00 0.00 0.00 57 1005.6
20260507014046 62 253 0.0 0.0 0.00 0.00 0.00 57 1005.7
20260507013502 62 242 0.0 0.0 0.00 0.00 0.00 57 1005.7
20260507013014 62 186 0.0 0.0 0.00 0.00 0.00 57 1005.8
20260507012526 62 160 0.0 0.0 0.00 0.00 0.00 57 1005.9
20260507012037 62 160 0.0 0.0 0.00 0.00 0.00 57 1006.0
20260507011551 62 140 0.0 0.0 0.00 0.00 0.00 57 1006.0
20260507011102 62 233 0.9 0.0 0.00 0.00 0.00 57 1006.1
20260507011007 62 233 0.9 0.0 0.00 0.00 0.00 57 1006.1
20260507010516 62 233 0.9 0.0 0.00 0.00 0.00 57 1006.2
20260507010048 62 187 0.9 0.0 0.00 0.00 0.00 57 1006.0
20260507005541 62 133 0.9 0.0 0.00 0.00 0.00 57 1006.1
20260507005055 62 150 0.9 0.0 0.00 0.00 0.00 57 1006.1
20260507004506 62 113 0.0 0.0 0.00 0.00 0.00 57 1006.1
20260507004020 62 192 0.0 0.0 0.00 0.00 0.00 57 1006.2
20260507003532 62 184 0.0 0.0 0.00 0.00 0.00 57 1006.1
20260507003044 62 191 0.0 0.0 0.00 0.00 0.00 57 1005.9
20260507002555 62 191 0.0 0.0 0.00 0.00 0.00 57 1006.0
20260507002014 62 142 0.0 0.0 0.00 0.00 0.00 57 1006.0
20260507001520 62 141 0.9 0.0 0.00 0.00 0.00 57 1005.9
20260507001034 62 172 0.9 0.0 0.00 0.00 0.00 57 1005.8
20260507000546 62 231 0.0 0.0 0.00 0.00 0.00 57 1005.8
20260507000058 62 202 0.0 0.0 0.00 0.00 0.00 57 1005.8
20260506235511 62 187 0.0 0.0 0.00 0.00 0.00 57 1005.6
20260506235024 62 187 0.0 0.0 0.00 0.00 0.00 57 1005.8
20260506234534 62 216 0.0 0.0 0.00 0.00 0.00 57 1005.7
20260506234048 62 216 0.0 0.0 0.00 0.00 0.00 57 1005.7
20260506233558 62 187 0.0 0.0 0.00 0.00 0.00 57 1005.7
20260506233015 62 220 0.0 0.0 0.00 0.00 0.00 57 1005.7
20260506232526 62 210 0.0 0.0 0.00 0.00 0.00 57 1005.6
20260506232038 62 154 0.9 0.0 0.00 0.00 0.00 57 1005.6
20260506231605 62 226 0.9 0.0 0.00 0.00 0.00 57 1005.7
20260506231010 62 191 0.9 0.0 0.00 0.00 0.00 57 1005.7
20260506230508 62 120 0.0 0.0 0.00 0.00 0.00 57 1005.7
20260506230019 62 116 0.0 0.0 0.00 0.00 0.00 57 1005.8
20260506225527 62 245 0.0 0.0 0.00 0.00 0.00 57 1005.7
20260506225036 62 142 0.0 0.0 0.00 0.00 0.00 57 1005.7
20260506224552 62 139 0.9 0.0 0.00 0.00 0.00 57 1005.6
20260506224002 63 284 0.9 0.0 0.00 0.00 0.00 57 1005.8
20260506223517 63 120 0.0 0.0 0.00 0.00 0.00 57 1005.8
20260506223026 63 170 0.0 0.0 0.00 0.00 0.00 57 1005.9
20260506222540 63 204 0.9 0.0 0.00 0.00 0.00 57 1005.8
20260506222054 63 166 0.9 0.0 0.00 0.00 0.00 57 1005.9
20260506221506 62 149 0.0 0.0 0.00 0.00 0.00 57 1006.0
20260506221016 62 165 0.0 0.0 0.00 0.00 0.00 57 1006.1
20260506220530 62 170 0.0 0.0 0.00 0.00 0.00 57 1006.1
20260506220050 62 243 0.0 0.0 0.00 0.00 0.00 57 1006.2
20260506215554 62 175 0.0 0.0 0.00 0.00 0.00 57 1006.1
20260506215006 62 158 0.0 0.0 0.00 0.00 0.00 57 1006.1
20260506214520 62 177 0.0 0.0 0.00 0.00 0.00 57 1006.1
20260506214029 61 208 0.9 0.0 0.00 0.00 0.00 57 1006.2
20260506213544 61 151 0.9 0.0 0.00 0.00 0.00 57 1006.4
20260506213109 61 208 0.0 0.0 0.00 0.00 0.00 57 1006.3
20260506212510 60 200 0.9 0.0 0.00 0.00 0.00 57 1006.5
20260506212025 60 207 0.9 0.0 0.00 0.00 0.00 57 1006.5
20260506211535 60 258 0.9 0.0 0.00 0.00 0.00 57 1006.4
20260506211040 60 223 0.9 0.0 0.00 0.00 0.00 57 1006.4
20260506210554 60 216 0.9 0.0 0.00 0.00 0.00 57 1006.4
20260506210012 60 204 0.9 0.0 0.00 0.00 0.00 57 1006.4
20260506205520 60 187 0.9 0.0 0.00 0.00 0.00 57 1006.6
20260506205035 60 191 0.9 0.0 0.00 0.00 0.00 57 1006.5
20260506204544 60 152 0.9 0.0 0.00 0.00 0.00 57 1006.5
20260506204100 60 250 0.9 0.0 0.00 0.00 0.00 57 1006.6
20260506203510 59 257 0.9 0.0 0.00 0.00 0.00 57 1006.8
20260506203024 59 184 0.9 0.0 0.00 0.00 0.00 57 1006.8
20260506202534 59 159 0.9 0.0 0.00 0.00 0.00 57 1006.7
20260506202049 59 204 0.9 0.0 0.00 0.00 0.00 57 1006.8
20260506201558 59 238 0.9 0.0 0.00 0.00 0.00 57 1006.8
20260506201503 59 238 0.9 0.0 0.00 0.00 0.00 57 1006.7
20260506201014 59 289 0.9 0.0 0.00 0.00 0.00 57 1006.6
20260506200524 59 230 0.9 0.0 0.00 0.00 0.00 57 1006.6
20260506200039 60 175 0.0 0.0 0.00 0.00 0.00 57 1006.6
20260506195556 60 270 0.0 0.0 0.00 0.00 0.00 57 1006.5
20260506195004 60 271 0.9 0.0 0.00 0.00 0.00 57 1006.5
20260506194515 60 185 0.9 0.0 0.00 0.00 0.00 61 1006.5
20260506194031 60 185 0.9 0.0 0.00 0.00 0.00 63 1006.5
20260506193538 61 189 0.9 0.0 0.00 0.00 0.00 73 1006.8
20260506193052 61 141 0.9 0.0 0.00 0.00 0.00 81 1006.9
20260506192504 62 167 0.0 0.0 0.00 0.00 0.00 83 1006.8
20260506192015 63 232 0.0 0.0 0.00 0.00 0.00 91 1006.9
20260506191520 64 231 0.9 0.0 0.00 0.00 0.00 100 1006.9
20260506191035 65 239 0.9 0.0 0.00 0.00 0.00 100 1006.7
20260506190547 66 248 0.9 0.0 0.00 0.00 0.00 100 1006.7
20260506190059 67 214 0.9 0.0 0.00 0.00 0.00 100 1006.8
20260506185515 68 253 0.9 0.0 0.00 0.00 0.00 100 1006.7
20260506185024 68 181 0.9 0.0 0.00 0.00 0.00 100 1006.8
20260506184542 68 264 0.9 0.0 0.00 0.00 0.00 100 1006.8
20260506184049 68 168 0.9 0.0 0.00 0.00 0.00 100 1006.8
20260506183505 69 246 1.7 0.0 0.00 0.00 0.00 100 1006.9
20260506183014 69 152 1.7 0.0 0.00 0.00 0.00 100 1007.0
20260506182530 70 262 1.7 0.0 0.00 0.00 0.00 100 1006.9
20260506182038 70 297 1.7 0.0 0.00 0.00 0.00 100 1007.0
20260506181552 70 204 0.9 0.0 0.00 0.00 0.00 100 1007.0
20260506181006 71 194 1.7 0.0 0.00 0.00 0.00 100 1007.0
20260506180519 71 192 1.7 0.0 0.00 0.00 0.00 100 1007.0
20260506180032 71 222 0.9 0.0 0.00 0.00 0.00 100 1007.0
20260506175542 71 295 0.9 0.0 0.00 0.00 0.00 100 1007.1
20260506175052 71 203 1.7 0.0 0.00 0.00 0.00 100 1007.1
20260506174521 72 256 1.7 0.0 0.00 0.00 0.00 100 1007.0
20260506174019 72 204 1.7 0.0 0.00 0.00 0.00 100 1007.3
20260506173533 72 269 1.7 0.0 0.00 0.00 0.00 100 1007.1
20260506173047 72 196 2.6 0.0 0.00 0.00 0.00 100 1007.2
20260506172557 72 271 1.7 0.0 0.00 0.00 0.00 100 1007.3
20260506172009 72 144 1.7 0.0 0.00 0.00 0.00 100 1007.4
20260506171534 72 183 1.7 0.0 0.00 0.00 0.00 100 1007.3
20260506171034 73 171 0.9 0.0 0.00 0.00 0.00 100 1007.3
20260506170547 73 177 0.9 0.0 0.00 0.00 0.00 100 1007.1
20260506170058 72 175 1.7 0.0 0.00 0.00 0.00 100 1007.2
20260506170004 72 158 1.7 0.0 0.00 0.00 0.00 100 1007.2
20260506165512 72 213 1.7 0.0 0.00 0.00 0.00 100 1007.3
20260506165028 72 198 1.7 0.0 0.00 0.00 0.00 100 1007.4
20260506164537 72 133 1.7 0.0 0.00 0.00 0.00 100 1007.5
20260506164053 72 190 0.9 0.0 0.00 0.00 0.00 100 1007.7
20260506163503 72 252 1.7 0.0 0.00 0.00 0.00 100 1007.6
20260506163017 72 264 1.7 0.0 0.00 0.00 0.00 100 1007.7
20260506162530 72 172 0.9 0.0 0.00 0.00 0.00 100 1007.6
20260506162040 72 173 0.9 0.0 0.00 0.00 0.00 100 1007.7
20260506161551 72 265 0.9 0.0 0.00 0.00 0.00 100 1007.8
20260506161007 72 254 0.9 0.0 0.00 0.00 0.00 100 1008.1
20260506160517 72 164 0.9 0.0 0.00 0.00 0.00 100 1008.1
20260506160031 72 202 0.9 0.0 0.00 0.00 0.00 100 1008.1
20260506155538 72 125 0.9 0.0 0.00 0.00 0.00 100 1008.2
20260506155052 71 213 0.9 0.0 0.00 0.00 0.00 100 1008.3
20260506154505 72 258 0.9 0.0 0.00 0.00 0.00 100 1008.5
20260506154019 72 150 1.7 0.0 0.00 0.00 0.00 100 1008.5
20260506153528 72 252 1.7 0.0 0.00 0.00 0.00 100 1008.6
20260506153043 72 159 1.7 0.0 0.00 0.00 0.00 100 1008.7
20260506152552 72 237 0.9 0.0 0.00 0.00 0.00 100 1008.7
20260506152008 72 152 1.7 0.0 0.00 0.00 0.00 100 1008.7
20260506151523 72 202 1.7 0.0 0.00 0.00 0.00 100 1008.6
20260506151034 72 228 1.7 0.0 0.00 0.00 0.00 100 1008.7
20260506150543 72 287 1.7 0.0 0.00 0.00 0.00 100 1008.8
20260506150057 72 190 1.7 0.0 0.00 0.00 0.00 100 1009.0
20260506145513 71 138 0.9 0.0 0.00 0.00 0.00 100 1008.8
20260506145022 71 140 0.9 0.0 0.00 0.00 0.00 100 1008.9
20260506144551 71 127 0.9 0.0 0.00 0.00 0.00 100 1008.8
20260506144047 70 140 0.9 0.0 0.00 0.00 0.00 100 1008.7
20260506143503 70 130 0.9 0.0 0.00 0.00 0.00 100 1008.8
20260506143012 70 120 0.9 0.0 0.00 0.00 0.00 100 1008.7
20260506142526 69 111 0.9 0.0 0.00 0.00 0.00 100 1008.8
20260506142036 69 179 0.9 0.0 0.00 0.00 0.00 100 1008.8
20260506141548 69 174 0.9 0.0 0.00 0.00 0.00 100 1008.7
20260506141059 68 233 0.9 0.0 0.00 0.00 0.00 100 1008.8
20260506140515 68 210 0.9 0.0 0.00 0.00 0.00 100 1008.8
20260506140031 68 126 0.9 0.0 0.00 0.00 0.00 100 1008.9
20260506135538 67 250 0.9 0.0 0.00 0.00 0.00 100 1009.0
20260506135048 67 209 0.9 0.0 0.00 0.00 0.00 100 1009.0
20260506134505 67 215 0.9 0.0 0.00 0.00 0.00 100 1008.9
20260506134014 66 189 0.9 0.0 0.00 0.00 0.00 100 1008.9
20260506133528 66 144 0.0 0.0 0.00 0.00 0.00 100 1009.2
20260506133039 66 176 0.0 0.0 0.00 0.00 0.00 100 1009.4
20260506132554 66 266 0.0 0.0 0.00 0.00 0.00 100 1009.6
20260506132003 65 67 0.9 0.0 0.00 0.00 0.00 100 1009.5
20260506131517 65 254 0.9 0.0 0.00 0.00 0.00 100 1009.7
20260506131029 65 195 0.9 0.0 0.00 0.00 0.00 100 1009.6
20260506130541 64 208 0.0 0.0 0.00 0.00 0.00 100 1009.5
20260506130054 64 134 0.0 0.0 0.00 0.00 0.00 100 1009.4
20260506125506 64 167 0.0 0.0 0.00 0.00 0.00 100 1009.3
20260506125022 63 165 0.9 0.0 0.00 0.00 0.00 100 1009.4
20260506124534 63 141 0.9 0.0 0.00 0.00 0.00 100 1009.5
20260506124045 62 216 0.9 0.0 0.00 0.00 0.00 100 1009.4
20260506123555 62 256 0.9 0.0 0.00 0.00 0.00 100 1009.6
20260506123011 62 210 0.0 0.0 0.00 0.00 0.00 100 1009.7
20260506122521 61 172 0.0 0.0 0.00 0.00 0.00 97 1009.7
20260506122037 61 135 0.0 0.0 0.00 0.00 0.00 94 1009.7
20260506121544 60 181 0.9 0.0 0.00 0.00 0.00 92 1009.7
20260506121058 60 146 0.9 0.0 0.00 0.00 0.00 91 1009.6
20260506121001 60 146 0.9 0.0 0.00 0.00 0.00 91 1009.6
20260506120511 60 176 0.0 0.0 0.00 0.00 0.00 85 1009.7
20260506120026 59 144 0.0 0.0 0.00 0.00 0.00 84 1009.7
20260506115535 59 175 0.9 0.0 0.00 0.00 0.00 84 1009.9
20260506115048 59 170 0.0 0.0 0.00 0.00 0.00 84 1010.0
20260506114559 59 191 0.0 0.0 0.00 0.00 0.00 82 1009.9
20260506114503 59 192 0.0 0.0 0.00 0.00 0.00 82 1009.9
20260506114015 59 208 0.0 0.0 0.00 0.00 0.00 84 1009.8
20260506113525 59 208 0.0 0.0 0.00 0.00 0.00 84 1010.1
20260506113039 59 210 0.0 0.0 0.00 0.00 0.00 82 1010.3
20260506112524 59 210 0.0 0.0 0.00 0.00 0.00 82 1010.2
20260506112038 59 214 0.0 0.0 0.00 0.00 0.00 82 1010.2
20260506111549 58 201 0.0 0.0 0.00 0.00 0.00 81 1010.0
20260506111006 58 207 0.0 0.0 0.00 0.00 0.00 80 1010.0
20260506110519 58 206 0.0 0.0 0.00 0.00 0.00 80 1010.0
20260506110033 58 210 0.0 0.0 0.00 0.00 0.00 79 1009.9
20260506105539 58 148 0.0 0.0 0.00 0.00 0.00 78 1009.9
20260506105055 58 139 0.0 0.0 0.00 0.00 0.00 78 1009.9
20260506104509 58 139 0.0 0.0 0.00 0.00 0.00 79 1009.9
20260506104019 58 138 0.0 0.0 0.00 0.00 0.00 79 1009.9
20260506103537 58 245 0.0 0.0 0.00 0.00 0.00 80 1010.0
20260506103044 58 245 0.0 0.0 0.00 0.00 0.00 80 1010.1
20260506102601 58 245 0.0 0.0 0.00 0.00 0.00 80 1010.0
20260506102009 58 256 0.0 0.0 0.00 0.00 0.00 82 1010.0
20260506101524 58 256 0.0 0.0 0.00 0.00 0.00 82 1010.1
20260506101034 58 252 0.0 0.0 0.00 0.00 0.00 83 1010.0
20260506100546 58 201 0.0 0.0 0.00 0.00 0.00 84 1009.9
20260506100111 58 201 0.0 0.0 0.00 0.00 0.00 85 1009.8
20260506095510 58 210 0.0 0.0 0.00 0.00 0.00 87 1009.9
20260506095015 58 210 0.0 0.0 0.00 0.00 0.00 88 1009.7
20260506094529 59 210 0.0 0.0 0.00 0.00 0.00 90 1009.7
20260506094049 59 210 0.0 0.0 0.00 0.00 0.00 90 1009.7
20260506093528 59 229 0.0 0.0 0.00 0.00 0.00 92 1009.7
20260506093038 59 233 0.0 0.0 0.00 0.00 0.00 94 1009.9
20260506092553 59 229 0.0 0.0 0.00 0.00 0.00 95 1009.9
20260506092005 59 231 0.0 0.0 0.00 0.00 0.00 96 1009.8
20260506091521 59 230 0.0 0.0 0.00 0.00 0.00 96 1009.8
20260506091031 59 231 0.0 0.0 0.00 0.00 0.00 98 1009.8
20260506090542 60 198 0.0 0.0 0.00 0.00 0.00 99 1009.7
20260506090053 60 198 0.0 0.0 0.00 0.00 0.00 100 1009.7
20260506085508 60 198 0.0 0.0 0.00 0.00 0.00 100 1009.8
20260506085018 60 195 0.0 0.0 0.00 0.00 0.00 100 1009.9
20260506084539 60 195 0.0 0.0 0.00 0.00 0.00 100 1009.9
20260506084043 60 152 0.9 0.0 0.00 0.00 0.00 100 1009.8
20260506083557 60 193 0.9 0.0 0.00 0.00 0.00 100 1009.9
20260506083014 60 225 0.0 0.0 0.00 0.00 0.00 100 1009.9
20260506082522 60 173 0.0 0.0 0.00 0.00 0.00 100 1009.9
20260506082037 61 158 0.0 0.0 0.00 0.00 0.00 100 1009.9
20260506081549 61 273 0.0 0.0 0.00 0.00 0.00 100 1009.9
20260506081003 61 170 0.0 0.0 0.00 0.00 0.00 100 1009.9
20260506080513 61 262 0.0 0.0 0.00 0.00 0.00 100 1009.9
20260506073525 61 235 0.0 0.0 0.00 0.00 0.00 100 1009.9
20260506073039 62 194 0.0 0.0 0.00 0.00 0.00 100 1009.9
20260506072549 62 264 0.0 0.0 0.00 0.00 0.00 100 1009.8
20260506072008 62 160 0.0 0.0 0.00 0.00 0.00 100 1009.8
20260506071514 62 208 0.9 0.0 0.00 0.00 0.00 100 1009.8
20260506071028 62 228 0.9 0.0 0.00 0.00 0.00 100 1009.7
20260506070541 62 169 0.9 0.0 0.00 0.00 0.00 100 1009.7
20260506062035 64 210 0.9 0.0 0.00 0.00 0.00 100 1009.4
20260506061548 64 181 0.9 0.0 0.00 0.00 0.00 100 1009.4
20260506061057 64 208 0.9 0.0 0.00 0.00 0.00 100 1009.3
20260506060513 64 227 0.9 0.0 0.00 0.00 0.00 100 1009.4
20260506051025 64 142 0.9 0.0 0.00 0.00 0.00 100 1009.8
20260506050543 64 249 0.9 0.0 0.00 0.00 0.00 100 1009.9
20260506045008 64 280 0.0 0.0 0.00 0.00 0.00 100 1010.0
20260506044529 64 280 0.0 0.0 0.00 0.00 0.00 100 1010.0
20260506044032 64 231 0.0 0.0 0.00 0.00 0.00 100 1010.0
20260506043547 64 183 0.0 0.0 0.00 0.00 0.00 100 1009.9
20260506043057 64 234 0.9 0.0 0.00 0.00 0.00 100 1009.9
20260506043004 64 234 0.9 0.0 0.00 0.00 0.00 100 1010.0
20260506042517 64 116 0.9 0.0 0.00 0.00 0.00 100 1010.1
20260506042028 64 208 0.0 0.0 0.00 0.00 0.00 100 1010.0
20260506041537 64 212 0.9 0.0 0.00 0.00 0.00 100 1010.1
20260506041052 64 158 0.9 0.0 0.00 0.00 0.00 100 1010.0